Time,TemperatureF,DewpointF,PressureIn,WindDirection,WindDirectionDegrees,WindSpeedMPH,WindSpeedGustMPH,Humidity,HourlyPrecipIn,Conditions,Clouds,dailyrainin,SolarRadiationWatts/m^2,SoftwareType,DateUTC
2013-07-16 00:00:00,73.5,70.4,30.07,West,276,0.0,1.0,90,0.00,,OVC012,0.00,0.00,VWS V14.01,2013-07-16 04:00:00,
2013-07-16 00:01:00,73.4,70.3,30.06,West,276,0.0,0.0,90,0.00,,CLR,0.00,0.00,VWS V14.01,2013-07-16 04:01:00,
2013-07-16 00:02:00,73.4,70.3,30.06,West,275,0.0,0.0,90,0.00,,CLR,0.00,0.00,VWS V14.01,2013-07-16 04:02:00,
2013-07-16 00:04:00,73.3,70.2,30.07,West,276,0.0,0.0,90,0.00,,CLR,0.00,0.00,VWS V14.01,2013-07-16 04:04:00,
2013-07-16 00:05:00,73.4,70.3,30.06,West,276,0.0,0.0,90,0.00,,OVC012,0.00,0.00,VWS V14.01,2013-07-16 04:05:00,
2013-07-16 00:09:00,73.1,70.0,30.06,West,276,0.0,0.0,90,0.00,,CLR,0.00,0.00,VWS V14.01,2013-07-16 04:09:00,
2013-07-16 00:10:00,73.2,70.1,30.06,West,275,0.0,0.0,90,0.00,,OVC012,0.00,0.00,VWS V14.01,2013-07-16 04:10:00,
2013-07-16 00:14:00,73.0,70.2,30.06,West,276,0.0,0.0,91,0.00,,CLR,0.00,0.00,VWS V14.01,2013-07-16 04:14:00,
2013-07-16 00:15:00,73.1,70.0,30.06,West,276,0.0,0.0,90,0.00,,OVC012,0.00,0.00,VWS V14.01,2013-07-16 04:15:00,
2013-07-16 00:19:00,72.9,70.1,30.06,West,276,0.0,0.0,91,0.00,,CLR,0.00,0.00,VWS V14.01,2013-07-16 04:19:00,
2013-07-16 00:20:00,72.9,70.1,30.06,West,276,0.0,0.0,91,0.00,,OVC012,0.00,0.00,VWS V14.01,2013-07-16 04:20:00,
2013-07-16 00:24:00,72.8,70.0,30.06,West,276,0.0,0.0,91,0.00,,CLR,0.00,0.00,VWS V14.01,2013-07-16 04:24:00,
2013-07-16 00:25:00,72.8,70.0,30.06,West,276,0.0,0.0,91,0.00,,OVC012,0.00,0.00,VWS V14.01,2013-07-16 04:25:00,
2013-07-16 00:29:00,72.6,69.8,30.06,West,276,0.0,0.0,91,0.00,,CLR,0.00,0.00,VWS V14.01,2013-07-16 04:29:00,
2013-07-16 00:30:00,72.6,69.8,30.06,West,276,0.0,0.0,91,0.00,,OVC012,0.00,0.00,VWS V14.01,2013-07-16 04:30:00,
2013-07-16 00:34:00,72.5,69.7,30.06,West,276,0.0,1.0,91,0.00,,CLR,0.00,0.00,VWS V14.01,2013-07-16 04:34:00,
2013-07-16 00:35:00,72.5,69.7,30.06,West,276,0.0,0.0,91,0.00,,OVC012,0.00,0.00,VWS V14.01,2013-07-16 04:35:00,
2013-07-16 00:39:00,72.4,69.6,30.06,West,276,0.0,1.0,91,0.00,,CLR,0.00,0.00,VWS V14.01,2013-07-16 04:39:00,
2013-07-16 00:40:00,72.5,70.1,30.06,West,276,0.0,1.0,92,0.00,,OVC012,0.00,0.00,VWS V14.01,2013-07-16 04:40:00,
2013-07-16 00:44:00,72.3,69.8,30.06,West,276,0.0,0.0,92,0.00,,CLR,0.00,0.00,VWS V14.01,2013-07-16 04:44:00,
2013-07-16 00:45:00,72.4,69.9,30.06,West,276,0.0,1.0,92,0.00,,OVC012,0.00,0.00,VWS V14.01,2013-07-16 04:45:00,
2013-07-16 00:49:00,72.1,69.7,30.06,West,276,0.0,0.0,92,0.00,,CLR,0.00,0.00,VWS V14.01,2013-07-16 04:49:00,
2013-07-16 00:50:00,72.2,69.8,30.06,West,276,0.0,0.0,92,0.00,,OVC012,0.00,0.00,VWS V14.01,2013-07-16 04:50:00,
2013-07-16 00:54:00,72.0,69.6,30.06,West,276,0.0,0.0,92,0.00,,CLR,0.00,0.00,VWS V14.01,2013-07-16 04:54:00,
2013-07-16 00:55:00,72.1,69.7,30.07,West,275,0.0,0.0,92,0.00,,OVC012,0.00,0.00,VWS V14.01,2013-07-16 04:55:00,
2013-07-16 00:59:00,71.9,69.4,30.06,West,275,0.0,0.0,92,0.00,,CLR,0.00,0.00,VWS V14.01,2013-07-16 04:59:00,
2013-07-16 01:00:00,71.9,69.4,30.06,West,275,0.0,0.0,92,0.00,,OVC012,0.00,0.00,VWS V14.01,2013-07-16 05:00:00,
2013-07-16 01:05:00,71.8,69.3,30.06,West,276,0.0,0.0,92,0.00,,CLR,0.00,0.00,VWS V14.01,2013-07-16 05:05:00,
2013-07-16 01:10:00,71.6,69.2,30.06,West,276,0.0,0.0,92,0.00,,CLR,0.00,0.00,VWS V14.01,2013-07-16 05:10:00,
2013-07-16 01:15:00,71.6,69.2,30.06,West,276,0.0,0.0,92,0.00,,CLR,0.00,0.00,VWS V14.01,2013-07-16 05:15:00,
2013-07-16 01:20:00,71.4,69.0,30.06,West,276,0.0,0.0,92,0.00,,CLR,0.00,0.00,VWS V14.01,2013-07-16 05:20:00,
2013-07-16 01:25:00,71.3,68.9,30.06,West,276,0.0,1.0,92,0.00,,CLR,0.00,0.00,VWS V14.01,2013-07-16 05:25:00,
2013-07-16 01:30:00,71.3,68.9,30.06,West,276,0.0,1.0,92,0.00,,CLR,0.00,0.00,VWS V14.01,2013-07-16 05:30:00,
2013-07-16 01:35:00,71.2,68.8,30.06,West,276,1.0,1.0,92,0.00,,CLR,0.00,0.00,VWS V14.01,2013-07-16 05:35:00,
2013-07-16 01:40:00,71.3,68.9,30.06,West,275,2.0,2.0,92,0.00,,CLR,0.00,0.00,VWS V14.01,2013-07-16 05:40:00,
2013-07-16 01:45:00,71.5,68.7,30.06,West,276,1.0,3.0,91,0.00,,CLR,0.00,0.00,VWS V14.01,2013-07-16 05:45:00,
2013-07-16 01:50:00,71.6,68.5,30.06,West,276,1.0,2.0,90,0.00,,CLR,0.00,0.00,VWS V14.01,2013-07-16 05:50:00,
2013-07-16 01:55:00,71.6,68.5,30.06,West,276,1.0,2.0,90,0.00,,CLR,0.00,0.00,VWS V14.01,2013-07-16 05:55:00,
2013-07-16 02:00:00,71.6,68.2,30.06,West,276,2.0,3.0,89,0.00,,CLR,0.00,0.00,VWS V14.01,2013-07-16 06:00:00,
2013-07-16 02:05:00,71.5,68.1,30.06,West,276,1.0,2.0,89,0.00,,CLR,0.00,0.00,VWS V14.01,2013-07-16 06:05:00,
2013-07-16 02:10:00,71.6,67.9,30.06,West,276,0.0,2.0,88,0.00,,CLR,0.00,0.00,VWS V14.01,2013-07-16 06:10:00,
2013-07-16 02:15:00,71.6,67.5,30.06,West,275,0.0,2.0,87,0.00,,CLR,0.00,0.00,VWS V14.01,2013-07-16 06:15:00,
2013-07-16 02:20:00,71.4,67.3,30.07,West,276,0.0,1.0,87,0.00,,CLR,0.00,0.00,VWS V14.01,2013-07-16 06:20:00,
2013-07-16 02:25:00,71.4,67.7,30.06,West,276,0.0,1.0,88,0.00,,OVC012,0.00,0.00,VWS V14.01,2013-07-16 06:25:00,
2013-07-16 02:26:00,71.3,67.6,30.06,West,276,0.0,0.0,88,0.00,,CLR,0.00,0.00,VWS V14.01,2013-07-16 06:26:00,
2013-07-16 02:30:00,71.2,67.5,30.06,West,276,1.0,1.0,88,0.00,,OVC012,0.00,0.00,VWS V14.01,2013-07-16 06:30:00,
2013-07-16 02:31:00,71.1,67.4,30.06,West,276,0.0,1.0,88,0.00,,CLR,0.00,0.00,VWS V14.01,2013-07-16 06:31:00,
2013-07-16 02:35:00,71.0,66.9,30.06,West,276,0.0,1.0,87,0.00,,OVC012,0.00,0.00,VWS V14.01,2013-07-16 06:35:00,
2013-07-16 02:36:00,70.8,67.1,30.06,West,276,0.0,1.0,88,0.00,,CLR,0.00,0.00,VWS V14.01,2013-07-16 06:36:00,
2013-07-16 02:40:00,70.8,67.1,30.06,West,276,1.0,1.0,88,0.00,,OVC012,0.00,0.00,VWS V14.01,2013-07-16 06:40:00,
2013-07-16 02:41:00,70.6,66.9,30.06,West,275,1.0,2.0,88,0.00,,CLR,0.00,0.00,VWS V14.01,2013-07-16 06:41:00,
2013-07-16 02:45:00,70.6,66.9,30.06,West,276,0.0,2.0,88,0.00,,OVC012,0.00,0.00,VWS V14.01,2013-07-16 06:45:00,
2013-07-16 02:46:00,70.5,66.8,30.06,West,275,1.0,1.0,88,0.00,,CLR,0.00,0.00,VWS V14.01,2013-07-16 06:46:00,
2013-07-16 02:50:00,70.5,66.8,30.06,West,276,0.0,1.0,88,0.00,,OVC012,0.00,0.00,VWS V14.01,2013-07-16 06:50:00,
2013-07-16 02:51:00,70.5,66.4,30.06,West,275,0.0,2.0,87,0.00,,CLR,0.00,0.00,VWS V14.01,2013-07-16 06:51:00,
2013-07-16 02:55:00,70.4,66.3,30.06,West,276,0.0,2.0,87,0.00,,OVC012,0.00,0.00,VWS V14.01,2013-07-16 06:55:00,
2013-07-16 02:56:00,70.3,66.2,30.06,West,276,0.0,1.0,87,0.00,,CLR,0.00,0.00,VWS V14.01,2013-07-16 06:56:00,
2013-07-16 03:00:00,70.3,66.2,30.06,West,275,0.0,1.0,87,0.00,,OVC012,0.00,0.00,VWS V14.01,2013-07-16 07:00:00,
2013-07-16 03:01:00,70.1,66.1,30.06,West,276,0.0,0.0,87,0.00,,CLR,0.00,0.00,VWS V14.01,2013-07-16 07:01:00,
2013-07-16 03:05:00,70.1,66.1,30.06,West,276,0.0,0.0,87,0.00,,OVC012,0.00,0.00,VWS V14.01,2013-07-16 07:05:00,
2013-07-16 03:06:00,69.9,66.2,30.06,West,276,0.0,1.0,88,0.00,,CLR,0.00,0.00,VWS V14.01,2013-07-16 07:06:00,
2013-07-16 03:10:00,69.9,66.2,30.06,West,275,0.0,1.0,88,0.00,,OVC012,0.00,0.00,VWS V14.01,2013-07-16 07:10:00,
2013-07-16 03:11:00,69.7,66.0,30.05,West,275,1.0,1.0,88,0.00,,CLR,0.00,0.00,VWS V14.01,2013-07-16 07:11:00,
2013-07-16 03:15:00,69.7,66.0,30.05,West,276,1.0,1.0,88,0.00,,OVC012,0.00,0.00,VWS V14.01,2013-07-16 07:15:00,
2013-07-16 03:16:00,69.6,65.9,30.06,West,276,1.0,2.0,88,0.00,,CLR,0.00,0.00,VWS V14.01,2013-07-16 07:16:00,
2013-07-16 03:20:00,69.7,66.0,30.06,West,275,2.0,2.0,88,0.00,,OVC012,0.00,0.00,VWS V14.01,2013-07-16 07:20:00,
2013-07-16 03:21:00,69.8,66.1,30.05,West,276,2.0,2.0,88,0.00,,CLR,0.00,0.00,VWS V14.01,2013-07-16 07:21:00,
2013-07-16 03:25:00,69.8,66.1,30.05,West,276,2.0,2.0,88,0.00,,OVC012,0.00,0.00,VWS V14.01,2013-07-16 07:25:00,
2013-07-16 03:26:00,69.9,65.9,30.05,West,276,1.0,2.0,87,0.00,,CLR,0.00,0.00,VWS V14.01,2013-07-16 07:26:00,
2013-07-16 03:30:00,69.9,65.9,30.05,West,275,1.0,2.0,87,0.00,,OVC012,0.00,0.00,VWS V14.01,2013-07-16 07:30:00,
2013-07-16 03:32:00,69.8,65.8,30.06,West,276,2.0,2.0,87,0.00,,CLR,0.00,0.00,VWS V14.01,2013-07-16 07:32:00,
2013-07-16 03:35:00,69.7,65.7,30.06,West,276,0.0,2.0,87,0.00,,OVC012,0.00,0.00,VWS V14.01,2013-07-16 07:35:00,
2013-07-16 03:37:00,69.6,65.6,30.05,West,276,0.0,2.0,87,0.00,,CLR,0.00,0.00,VWS V14.01,2013-07-16 07:37:00,
2013-07-16 03:40:00,69.5,65.5,30.05,West,276,1.0,2.0,87,0.00,,OVC012,0.00,0.00,VWS V14.01,2013-07-16 07:40:00,
2013-07-16 03:42:00,69.3,65.3,30.05,West,276,0.0,1.0,87,0.00,,CLR,0.00,0.00,VWS V14.01,2013-07-16 07:42:00,
2013-07-16 03:45:00,69.3,65.3,30.05,West,275,0.0,1.0,87,0.00,,OVC012,0.00,0.00,VWS V14.01,2013-07-16 07:45:00,
2013-07-16 03:47:00,69.2,65.5,30.05,West,275,0.0,0.0,88,0.00,,CLR,0.00,0.00,VWS V14.01,2013-07-16 07:47:00,
2013-07-16 03:50:00,69.1,65.4,30.05,West,275,0.0,0.0,88,0.00,,OVC012,0.00,0.00,VWS V14.01,2013-07-16 07:50:00,
2013-07-16 03:52:00,68.9,65.2,30.06,West,276,0.0,0.0,88,0.00,,CLR,0.00,0.00,VWS V14.01,2013-07-16 07:52:00,
2013-07-16 03:55:00,68.9,65.2,30.06,West,276,0.0,0.0,88,0.00,,OVC012,0.00,0.00,VWS V14.01,2013-07-16 07:55:00,
2013-07-16 03:57:00,68.8,65.1,30.05,West,276,0.0,0.0,88,0.00,,CLR,0.00,0.00,VWS V14.01,2013-07-16 07:57:00,
2013-07-16 04:00:00,68.8,65.1,30.05,West,275,0.0,0.0,88,0.00,,OVC012,0.00,0.00,VWS V14.01,2013-07-16 08:00:00,
2013-07-16 04:02:00,68.6,64.9,30.05,West,275,0.0,1.0,88,0.00,,CLR,0.00,0.00,VWS V14.01,2013-07-16 08:02:00,
2013-07-16 04:05:00,68.6,64.9,30.05,West,276,0.0,1.0,88,0.00,,OVC012,0.00,0.00,VWS V14.01,2013-07-16 08:05:00,
2013-07-16 04:07:00,68.6,64.9,30.06,West,275,1.0,2.0,88,0.00,,CLR,0.00,0.00,VWS V14.01,2013-07-16 08:07:00,
2013-07-16 04:10:00,68.6,64.9,30.06,West,275,1.0,2.0,88,0.00,,OVC012,0.00,0.00,VWS V14.01,2013-07-16 08:10:00,
2013-07-16 04:12:00,68.5,64.8,30.06,West,276,0.0,2.0,88,0.00,,CLR,0.00,0.00,VWS V14.01,2013-07-16 08:12:00,
2013-07-16 04:15:00,68.5,64.8,30.06,West,276,0.0,2.0,88,0.00,,OVC012,0.00,0.00,VWS V14.01,2013-07-16 08:15:00,
2013-07-16 04:17:00,68.5,64.8,30.05,West,276,3.0,3.0,88,0.00,,CLR,0.00,0.00,VWS V14.01,2013-07-16 08:17:00,
2013-07-16 04:20:00,68.5,64.8,30.06,West,276,3.0,3.0,88,0.00,,OVC012,0.00,0.00,VWS V14.01,2013-07-16 08:20:00,
2013-07-16 04:22:00,68.7,65.0,30.06,West,275,2.0,3.0,88,0.00,,CLR,0.00,0.00,VWS V14.01,2013-07-16 08:22:00,
2013-07-16 04:25:00,68.7,65.0,30.05,West,275,3.0,3.0,88,0.00,,OVC012,0.00,0.00,VWS V14.01,2013-07-16 08:25:00,
2013-07-16 04:27:00,68.8,65.1,30.06,West,276,1.0,2.0,88,0.00,,CLR,0.00,0.00,VWS V14.01,2013-07-16 08:27:00,
2013-07-16 04:30:00,68.8,65.1,30.06,West,276,1.0,3.0,88,0.00,,OVC012,0.00,0.00,VWS V14.01,2013-07-16 08:30:00,
2013-07-16 04:32:00,68.9,65.2,30.06,West,276,2.0,3.0,88,0.00,,CLR,0.00,0.00,VWS V14.01,2013-07-16 08:32:00,
2013-07-16 04:35:00,68.9,65.2,30.06,West,276,3.0,3.0,88,0.00,,OVC012,0.00,0.00,VWS V14.01,2013-07-16 08:35:00,
2013-07-16 04:38:00,68.9,64.9,30.06,West,276,2.0,3.0,87,0.00,,CLR,0.00,0.00,VWS V14.01,2013-07-16 08:38:00,
2013-07-16 04:40:00,68.9,64.9,30.06,West,276,1.0,3.0,87,0.00,,OVC012,0.00,0.00,VWS V14.01,2013-07-16 08:40:00,
2013-07-16 04:43:00,68.9,64.9,30.06,West,276,1.0,2.0,87,0.00,,CLR,0.00,0.00,VWS V14.01,2013-07-16 08:43:00,
2013-07-16 04:45:00,68.9,64.9,30.06,West,276,1.0,3.0,87,0.00,,OVC012,0.00,0.00,VWS V14.01,2013-07-16 08:45:00,
2013-07-16 04:48:00,68.9,64.9,30.06,West,275,2.0,3.0,87,0.00,,CLR,0.00,0.00,VWS V14.01,2013-07-16 08:48:00,
2013-07-16 04:50:00,68.9,64.9,30.06,West,276,3.0,3.0,87,0.00,,OVC012,0.00,0.00,VWS V14.01,2013-07-16 08:50:00,
2013-07-16 04:53:00,68.8,64.8,30.06,West,276,1.0,2.0,87,0.00,,CLR,0.00,0.00,VWS V14.01,2013-07-16 08:53:00,
2013-07-16 04:55:00,68.8,64.8,30.06,West,275,2.0,3.0,87,0.00,,OVC012,0.00,0.00,VWS V14.01,2013-07-16 08:55:00,
2013-07-16 04:58:00,68.8,64.8,30.06,West,275,1.0,2.0,87,0.00,,CLR,0.00,0.00,VWS V14.01,2013-07-16 08:58:00,
2013-07-16 05:00:00,68.8,64.8,30.06,West,276,1.0,2.0,87,0.00,,OVC012,0.00,0.00,VWS V14.01,2013-07-16 09:00:00,
2013-07-16 05:03:00,68.8,64.8,30.06,West,276,1.0,2.0,87,0.00,,CLR,0.00,0.00,VWS V14.01,2013-07-16 09:03:00,
2013-07-16 05:05:00,68.8,64.8,30.06,West,275,0.0,2.0,87,0.00,,OVC012,0.00,0.00,VWS V14.01,2013-07-16 09:05:00,
2013-07-16 05:08:00,68.7,64.7,30.06,West,276,1.0,2.0,87,0.00,,CLR,0.00,0.00,VWS V14.01,2013-07-16 09:08:00,
2013-07-16 05:10:00,68.7,64.7,30.06,West,276,1.0,2.0,87,0.00,,OVC012,0.00,0.00,VWS V14.01,2013-07-16 09:10:00,
2013-07-16 05:13:00,68.6,64.6,30.07,West,276,1.0,1.0,87,0.00,,CLR,0.00,0.00,VWS V14.01,2013-07-16 09:13:00,
2013-07-16 05:15:00,68.7,64.7,30.06,West,275,1.0,2.0,87,0.00,,OVC012,0.00,0.00,VWS V14.01,2013-07-16 09:15:00,
2013-07-16 05:18:00,68.5,64.5,30.07,West,276,1.0,2.0,87,0.00,,CLR,0.00,0.00,VWS V14.01,2013-07-16 09:18:00,
2013-07-16 05:20:00,68.6,64.6,30.07,West,276,1.0,2.0,87,0.00,,OVC012,0.00,0.00,VWS V14.01,2013-07-16 09:20:00,
2013-07-16 05:23:00,68.5,64.8,30.07,West,275,1.0,2.0,88,0.00,,CLR,0.00,0.00,VWS V14.01,2013-07-16 09:23:00,
2013-07-16 05:25:00,68.5,64.8,30.07,West,276,2.0,2.0,88,0.00,,OVC012,0.00,0.00,VWS V14.01,2013-07-16 09:25:00,
2013-07-16 05:28:00,68.4,64.7,30.07,West,276,1.0,2.0,88,0.00,,CLR,0.00,5.00,VWS V14.01,2013-07-16 09:28:00,
2013-07-16 05:30:00,68.4,64.7,30.07,West,275,1.0,2.0,88,0.00,,OVC012,0.00,5.00,VWS V14.01,2013-07-16 09:30:00,
2013-07-16 05:33:00,68.4,64.7,30.07,West,276,0.0,1.0,88,0.00,,CLR,0.00,9.00,VWS V14.01,2013-07-16 09:33:00,
2013-07-16 05:35:00,68.4,64.7,30.07,West,276,0.0,2.0,88,0.00,,OVC012,0.00,9.00,VWS V14.01,2013-07-16 09:35:00,
2013-07-16 05:38:00,68.4,64.7,30.07,West,276,1.0,2.0,88,0.00,,CLR,0.00,12.00,VWS V14.01,2013-07-16 09:38:00,
2013-07-16 05:40:00,68.4,64.7,30.07,West,275,1.0,2.0,88,0.00,,OVC012,0.00,11.00,VWS V14.01,2013-07-16 09:40:00,
2013-07-16 05:43:00,68.4,64.7,30.07,West,276,0.0,1.0,88,0.00,,CLR,0.00,16.00,VWS V14.01,2013-07-16 09:43:00,
2013-07-16 05:45:00,68.4,64.7,30.07,West,275,1.0,2.0,88,0.00,,OVC012,0.00,14.00,VWS V14.01,2013-07-16 09:45:00,
2013-07-16 05:48:00,68.4,64.7,30.07,West,276,0.0,1.0,88,0.00,,CLR,0.00,23.00,VWS V14.01,2013-07-16 09:48:00,
2013-07-16 05:50:00,68.4,64.7,30.07,West,276,0.0,1.0,88,0.00,,OVC012,0.00,21.00,VWS V14.01,2013-07-16 09:50:00,
2013-07-16 05:54:00,68.3,64.6,30.07,West,276,0.0,0.0,88,0.00,,CLR,0.00,32.00,VWS V14.01,2013-07-16 09:54:00,
2013-07-16 05:55:00,68.3,64.6,30.07,West,276,0.0,1.0,88,0.00,,OVC012,0.00,28.00,VWS V14.01,2013-07-16 09:55:00,
2013-07-16 05:59:00,68.5,64.8,30.07,West,276,0.0,0.0,88,0.00,,CLR,0.00,42.00,VWS V14.01,2013-07-16 09:59:00,
2013-07-16 06:00:00,68.4,64.7,30.07,West,275,0.0,0.0,88,0.00,,OVC012,0.00,39.00,VWS V14.01,2013-07-16 10:00:00,
2013-07-16 06:04:00,68.7,65.0,30.07,West,275,0.0,0.0,88,0.00,,CLR,0.00,53.00,VWS V14.01,2013-07-16 10:04:00,
2013-07-16 06:05:00,68.6,64.9,30.07,West,276,0.0,0.0,88,0.00,,OVC012,0.00,49.00,VWS V14.01,2013-07-16 10:05:00,
2013-07-16 06:09:00,69.0,65.3,30.07,West,275,2.0,2.0,88,0.00,,CLR,0.00,63.00,VWS V14.01,2013-07-16 10:09:00,
2013-07-16 06:10:00,68.9,65.2,30.07,West,276,0.0,1.0,88,0.00,,OVC012,0.00,60.00,VWS V14.01,2013-07-16 10:10:00,
2013-07-16 06:14:00,69.2,65.2,30.07,West,276,1.0,1.0,87,0.00,,CLR,0.00,74.00,VWS V14.01,2013-07-16 10:14:00,
2013-07-16 06:15:00,69.1,65.1,30.07,West,276,0.0,2.0,87,0.00,,OVC012,0.00,70.00,VWS V14.01,2013-07-16 10:15:00,
2013-07-16 06:19:00,69.4,65.0,30.07,West,275,1.0,2.0,86,0.00,,CLR,0.00,88.00,VWS V14.01,2013-07-16 10:19:00,
2013-07-16 06:20:00,69.3,65.3,30.07,West,276,2.0,2.0,87,0.00,,OVC012,0.00,83.00,VWS V14.01,2013-07-16 10:20:00,
2013-07-16 06:24:00,69.8,65.4,30.07,West,276,1.0,2.0,86,0.00,,CLR,0.00,100.00,VWS V14.01,2013-07-16 10:24:00,
2013-07-16 06:25:00,69.6,65.2,30.07,West,276,0.0,2.0,86,0.00,,OVC012,0.00,97.00,VWS V14.01,2013-07-16 10:25:00,
2013-07-16 06:29:00,70.1,65.4,30.08,West,276,1.0,2.0,85,0.00,,CLR,0.00,114.00,VWS V14.01,2013-07-16 10:29:00,
2013-07-16 06:30:00,70.0,65.6,30.07,West,275,2.0,2.0,86,0.00,,OVC012,0.00,107.00,VWS V14.01,2013-07-16 10:30:00,
2013-07-16 06:34:00,70.5,65.8,30.08,West,276,0.0,2.0,85,0.00,,CLR,0.00,128.00,VWS V14.01,2013-07-16 10:34:00,
2013-07-16 06:35:00,70.3,65.6,30.08,West,276,0.0,2.0,85,0.00,,OVC012,0.00,121.00,VWS V14.01,2013-07-16 10:35:00,
2013-07-16 06:39:00,70.7,66.0,30.08,West,276,3.0,3.0,85,0.00,,CLR,0.00,142.00,VWS V14.01,2013-07-16 10:39:00,
2013-07-16 06:40:00,70.6,65.9,30.08,West,276,1.0,3.0,85,0.00,,OVC012,0.00,135.00,VWS V14.01,2013-07-16 10:40:00,
2013-07-16 06:44:00,71.0,65.9,30.08,West,276,2.0,4.0,84,0.00,,CLR,0.00,155.00,VWS V14.01,2013-07-16 10:44:00,
2013-07-16 06:45:00,70.9,65.8,30.08,West,276,4.0,4.0,84,0.00,,OVC012,0.00,149.00,VWS V14.01,2013-07-16 10:45:00,
2013-07-16 06:49:00,71.3,66.2,30.08,West,275,3.0,4.0,84,0.00,,CLR,0.00,169.00,VWS V14.01,2013-07-16 10:49:00,
2013-07-16 06:50:00,71.2,66.1,30.08,West,275,3.0,4.0,84,0.00,,OVC012,0.00,165.00,VWS V14.01,2013-07-16 10:50:00,
2013-07-16 06:54:00,71.6,66.2,30.08,West,276,3.0,3.0,83,0.00,,CLR,0.00,183.00,VWS V14.01,2013-07-16 10:54:00,
2013-07-16 06:55:00,71.5,66.4,30.08,West,276,1.0,4.0,84,0.00,,OVC012,0.00,178.00,VWS V14.01,2013-07-16 10:55:00,
2013-07-16 06:59:00,72.0,66.6,30.08,West,275,2.0,3.0,83,0.00,,CLR,0.00,199.00,VWS V14.01,2013-07-16 10:59:00,
2013-07-16 07:00:00,71.8,66.4,30.08,West,276,1.0,3.0,83,0.00,,OVC012,0.00,193.00,VWS V14.01,2013-07-16 11:00:00,
2013-07-16 07:04:00,72.3,66.8,30.08,West,276,2.0,3.0,83,0.00,,CLR,0.00,213.00,VWS V14.01,2013-07-16 11:04:00,
2013-07-16 07:05:00,72.2,66.8,30.08,West,276,1.0,3.0,83,0.00,,OVC012,0.00,207.00,VWS V14.01,2013-07-16 11:05:00,
2013-07-16 07:10:00,72.8,67.3,30.08,West,276,0.0,4.0,83,0.00,,CLR,0.00,227.00,VWS V14.01,2013-07-16 11:10:00,
2013-07-16 07:15:00,73.4,67.6,30.08,West,276,0.0,3.0,82,0.00,,CLR,0.00,241.00,VWS V14.01,2013-07-16 11:15:00,
2013-07-16 07:20:00,74.0,67.4,30.08,West,281,1.0,4.0,80,0.00,,CLR,0.00,255.00,VWS V14.01,2013-07-16 11:20:00,
2013-07-16 07:25:00,74.7,67.8,30.08,WNW,302,1.0,3.0,79,0.00,,CLR,0.00,271.00,VWS V14.01,2013-07-16 11:25:00,
2013-07-16 07:30:00,75.2,67.5,30.08,NNW,329,3.0,5.0,77,0.00,,CLR,0.00,285.00,VWS V14.01,2013-07-16 11:30:00,
2013-07-16 07:35:00,75.8,67.7,30.08,NNW,329,2.0,5.0,76,0.00,,CLR,0.00,299.00,VWS V14.01,2013-07-16 11:35:00,
2013-07-16 07:40:00,76.2,68.1,30.08,NNW,328,2.0,4.0,76,0.00,,CLR,0.00,313.00,VWS V14.01,2013-07-16 11:40:00,
2013-07-16 07:45:00,76.6,68.1,30.08,NW,304,5.0,7.0,75,0.00,,CLR,0.00,329.00,VWS V14.01,2013-07-16 11:45:00,
2013-07-16 07:50:00,77.0,68.5,30.08,NW,309,4.0,4.0,75,0.00,,CLR,0.00,345.00,VWS V14.01,2013-07-16 11:50:00,
2013-07-16 07:55:00,77.3,68.4,30.09,NNW,344,4.0,6.0,74,0.00,,CLR,0.00,355.00,VWS V14.01,2013-07-16 11:55:00,
2013-07-16 08:00:00,77.4,67.7,30.09,North,355,3.0,7.0,72,0.00,,CLR,0.00,373.00,VWS V14.01,2013-07-16 12:00:00,
2013-07-16 08:05:00,77.5,67.8,30.08,NNW,336,2.0,8.0,72,0.00,,CLR,0.00,381.00,VWS V14.01,2013-07-16 12:05:00,
2013-07-16 08:10:00,77.7,68.8,30.09,North,11,1.0,7.0,74,0.00,,CLR,0.00,403.00,VWS V14.01,2013-07-16 12:10:00,
2013-07-16 08:15:00,78.1,68.3,30.09,NW,309,3.0,8.0,72,0.00,,CLR,0.00,415.00,VWS V14.01,2013-07-16 12:15:00,
2013-07-16 08:20:00,78.2,68.4,30.09,NW,319,3.0,8.0,72,0.00,,OVC012,0.00,418.00,VWS V14.01,2013-07-16 12:20:00,
2013-07-16 08:21:00,78.4,69.0,30.09,NNW,327,6.0,6.0,73,0.00,,CLR,0.00,427.00,VWS V14.01,2013-07-16 12:21:00,
2013-07-16 08:25:00,78.4,68.6,30.09,NW,322,7.0,11.0,72,0.00,,OVC012,0.00,432.00,VWS V14.01,2013-07-16 12:25:00,
2013-07-16 08:26:00,78.5,68.3,30.08,North,360,2.0,11.0,71,0.00,,CLR,0.00,441.00,VWS V14.01,2013-07-16 12:26:00,
2013-07-16 08:30:00,78.5,68.3,30.08,NNW,348,5.0,11.0,71,0.00,,OVC012,0.00,446.00,VWS V14.01,2013-07-16 12:30:00,
2013-07-16 08:31:00,78.7,68.5,30.09,NW,326,4.0,8.0,71,0.00,,CLR,0.00,459.00,VWS V14.01,2013-07-16 12:31:00,
2013-07-16 08:35:00,78.8,68.2,30.09,NNW,327,4.0,8.0,70,0.00,,OVC012,0.00,464.00,VWS V14.01,2013-07-16 12:35:00,
2013-07-16 08:36:00,79.0,69.2,30.09,NW,323,3.0,7.0,72,0.00,,CLR,0.00,471.00,VWS V14.01,2013-07-16 12:36:00,
2013-07-16 08:40:00,79.0,68.8,30.09,NW,316,2.0,7.0,71,0.00,,OVC012,0.00,476.00,VWS V14.01,2013-07-16 12:40:00,
2013-07-16 08:41:00,79.4,69.6,30.09,NW,314,2.0,6.0,72,0.00,,CLR,0.00,485.00,VWS V14.01,2013-07-16 12:41:00,
2013-07-16 08:45:00,79.5,68.9,30.09,NNW,340,5.0,7.0,70,0.00,,OVC012,0.00,490.00,VWS V14.01,2013-07-16 12:45:00,
2013-07-16 08:46:00,79.6,69.0,30.09,NNW,343,1.0,7.0,70,0.00,,CLR,0.00,496.00,VWS V14.01,2013-07-16 12:46:00,
2013-07-16 08:50:00,79.7,69.9,30.09,NNW,343,2.0,7.0,72,0.00,,OVC012,0.00,499.00,VWS V14.01,2013-07-16 12:50:00,
2013-07-16 08:51:00,80.0,69.3,30.09,NNW,336,4.0,7.0,70,0.00,,CLR,0.00,515.00,VWS V14.01,2013-07-16 12:51:00,
2013-07-16 08:55:00,80.1,69.0,30.09,WNW,302,5.0,7.0,69,0.00,,OVC012,0.00,519.00,VWS V14.01,2013-07-16 12:55:00,
2013-07-16 08:56:00,80.2,69.5,30.09,NW,317,4.0,6.0,70,0.00,,CLR,0.00,531.00,VWS V14.01,2013-07-16 12:56:00,
2013-07-16 09:00:00,80.2,69.1,30.08,NW,312,3.0,6.0,69,0.00,,OVC012,0.00,533.00,VWS V14.01,2013-07-16 13:00:00,
2013-07-16 09:01:00,80.4,69.7,30.08,NW,308,5.0,6.0,70,0.00,,CLR,0.00,545.00,VWS V14.01,2013-07-16 13:01:00,
2013-07-16 09:05:00,80.5,69.4,30.08,WNW,302,6.0,7.0,69,0.00,,OVC012,0.00,547.00,VWS V14.01,2013-07-16 13:05:00,
2013-07-16 09:06:00,80.6,69.1,30.09,NNW,327,5.0,8.0,68,0.00,,CLR,0.00,555.00,VWS V14.01,2013-07-16 13:06:00,
2013-07-16 09:10:00,80.6,69.1,30.09,NNW,327,5.0,8.0,68,0.00,,OVC012,0.00,557.00,VWS V14.01,2013-07-16 13:10:00,
2013-07-16 09:11:00,80.8,69.7,30.09,North,9,4.0,7.0,69,0.00,,CLR,0.00,566.00,VWS V14.01,2013-07-16 13:11:00,
2013-07-16 09:15:00,80.9,69.8,30.09,North,9,2.0,7.0,69,0.00,,OVC012,0.00,566.00,VWS V14.01,2013-07-16 13:15:00,
2013-07-16 09:16:00,81.3,70.2,30.08,North,360,3.0,5.0,69,0.00,,CLR,0.00,582.00,VWS V14.01,2013-07-16 13:16:00,
2013-07-16 09:20:00,81.4,69.8,30.08,North,360,2.0,5.0,68,0.00,,OVC012,0.00,582.00,VWS V14.01,2013-07-16 13:20:00,
2013-07-16 09:21:00,81.8,69.8,30.09,NW,326,2.0,6.0,67,0.00,,CLR,0.00,596.00,VWS V14.01,2013-07-16 13:21:00,
2013-07-16 09:25:00,81.9,69.9,30.09,NW,326,0.0,6.0,67,0.00,,OVC012,0.00,596.00,VWS V14.01,2013-07-16 13:25:00,
2013-07-16 09:27:00,82.1,70.1,30.09,NNW,332,2.0,4.0,67,0.00,,CLR,0.00,608.00,VWS V14.01,2013-07-16 13:27:00,
2013-07-16 09:30:00,82.2,70.2,30.09,NNW,333,0.0,4.0,67,0.00,,OVC012,0.00,608.00,VWS V14.01,2013-07-16 13:30:00,
2013-07-16 09:32:00,82.7,70.6,30.08,North,355,3.0,6.0,67,0.00,,CLR,0.00,621.00,VWS V14.01,2013-07-16 13:32:00,
2013-07-16 09:35:00,82.8,70.7,30.08,North,355,3.0,6.0,67,0.00,,OVC012,0.00,622.00,VWS V14.01,2013-07-16 13:35:00,
2013-07-16 09:37:00,82.8,69.4,30.08,NW,313,4.0,7.0,64,0.00,,CLR,0.00,564.00,VWS V14.01,2013-07-16 13:37:00,
2013-07-16 09:40:00,82.8,69.4,30.08,NW,313,3.0,7.0,64,0.00,,OVC012,0.00,564.00,VWS V14.01,2013-07-16 13:40:00,
2013-07-16 09:42:00,82.5,69.6,30.08,West,265,6.0,8.0,65,0.00,,CLR,0.00,640.00,VWS V14.01,2013-07-16 13:42:00,
2013-07-16 09:45:00,82.5,69.6,30.08,WNW,283,5.0,8.0,65,0.00,,OVC012,0.00,640.00,VWS V14.01,2013-07-16 13:45:00,
2013-07-16 09:47:00,82.5,70.0,30.08,West,279,2.0,7.0,66,0.00,,CLR,0.00,652.00,VWS V14.01,2013-07-16 13:47:00,
2013-07-16 09:50:00,82.5,70.0,30.08,NW,309,6.0,7.0,66,0.00,,OVC012,0.00,652.00,VWS V14.01,2013-07-16 13:50:00,
2013-07-16 09:52:00,82.9,69.9,30.08,NNW,331,3.0,6.0,65,0.00,,CLR,0.00,663.00,VWS V14.01,2013-07-16 13:52:00,
2013-07-16 09:55:00,82.9,69.9,30.08,NNW,331,1.0,6.0,65,0.00,,OVC012,0.00,663.00,VWS V14.01,2013-07-16 13:55:00,
2013-07-16 09:57:00,83.2,69.8,30.08,NW,318,3.0,5.0,64,0.00,,CLR,0.00,675.00,VWS V14.01,2013-07-16 13:57:00,
2013-07-16 10:00:00,83.3,69.9,30.08,NW,317,2.0,5.0,64,0.00,,OVC012,0.00,675.00,VWS V14.01,2013-07-16 14:00:00,
2013-07-16 10:02:00,83.4,69.9,30.08,WNW,283,1.0,5.0,64,0.00,,CLR,0.00,684.00,VWS V14.01,2013-07-16 14:02:00,
2013-07-16 10:05:00,83.4,69.9,30.08,WNW,283,1.0,5.0,64,0.00,,OVC012,0.00,684.00,VWS V14.01,2013-07-16 14:05:00,
2013-07-16 10:07:00,83.8,69.9,30.08,WNW,299,1.0,5.0,63,0.00,,CLR,0.00,696.00,VWS V14.01,2013-07-16 14:07:00,
2013-07-16 10:10:00,83.8,69.9,30.08,WNW,299,1.0,5.0,63,0.00,,OVC012,0.00,696.00,VWS V14.01,2013-07-16 14:10:00,
2013-07-16 10:12:00,84.4,70.4,30.08,NNW,331,1.0,6.0,63,0.00,,CLR,0.00,708.00,VWS V14.01,2013-07-16 14:12:00,
2013-07-16 10:15:00,84.4,70.4,30.08,NNW,331,1.0,6.0,63,0.00,,OVC012,0.00,708.00,VWS V14.01,2013-07-16 14:15:00,
2013-07-16 10:17:00,84.5,70.5,30.08,NW,309,4.0,4.0,63,0.00,,CLR,0.00,714.00,VWS V14.01,2013-07-16 14:17:00,
2013-07-16 10:20:00,84.5,70.5,30.08,NW,308,2.0,6.0,63,0.00,,OVC012,0.00,714.00,VWS V14.01,2013-07-16 14:20:00,
2013-07-16 10:22:00,84.6,70.2,30.08,NNE,21,3.0,3.0,62,0.00,,CLR,0.00,728.00,VWS V14.01,2013-07-16 14:22:00,
2013-07-16 10:25:00,84.5,70.1,30.08,NNE,22,1.0,5.0,62,0.00,,OVC012,0.00,728.00,VWS V14.01,2013-07-16 14:25:00,
2013-07-16 10:27:00,84.7,69.8,30.08,North,355,2.0,2.0,61,0.00,,CLR,0.00,737.00,VWS V14.01,2013-07-16 14:27:00,
2013-07-16 10:30:00,84.7,69.8,30.08,North,355,1.0,7.0,61,0.00,,OVC012,0.00,737.00,VWS V14.01,2013-07-16 14:30:00,
2013-07-16 10:32:00,84.8,70.3,30.08,NNW,331,3.0,4.0,62,0.00,,CLR,0.00,744.00,VWS V14.01,2013-07-16 14:32:00,
2013-07-16 10:35:00,84.8,70.3,30.08,NW,326,3.0,6.0,62,0.00,,OVC012,0.00,742.00,VWS V14.01,2013-07-16 14:35:00,
2013-07-16 10:37:00,84.9,70.0,30.08,North,355,1.0,3.0,61,0.00,,CLR,0.00,754.00,VWS V14.01,2013-07-16 14:37:00,
2013-07-16 10:40:00,84.9,70.0,30.08,North,355,3.0,7.0,61,0.00,,OVC012,0.00,752.00,VWS V14.01,2013-07-16 14:40:00,
2013-07-16 10:43:00,85.2,71.2,30.08,NE,44,0.0,1.0,63,0.00,,CLR,0.00,684.00,VWS V14.01,2013-07-16 14:43:00,
2013-07-16 10:45:00,85.2,70.7,30.08,NE,44,1.0,5.0,62,0.00,,OVC012,0.00,759.00,VWS V14.01,2013-07-16 14:45:00,
2013-07-16 10:48:00,85.5,70.0,30.08,NNW,328,3.0,6.0,60,0.00,,CLR,0.00,766.00,VWS V14.01,2013-07-16 14:48:00,
2013-07-16 10:50:00,85.5,69.6,30.08,NNW,327,6.0,7.0,59,0.00,,OVC012,0.00,766.00,VWS V14.01,2013-07-16 14:50:00,
2013-07-16 10:53:00,85.6,72.0,30.08,NNE,16,3.0,4.0,64,0.00,,CLR,0.00,772.00,VWS V14.01,2013-07-16 14:53:00,
2013-07-16 10:55:00,85.5,71.0,30.08,NE,39,2.0,6.0,62,0.00,,OVC012,0.00,772.00,VWS V14.01,2013-07-16 14:55:00,
2013-07-16 10:58:00,85.8,70.3,30.07,West,261,3.0,6.0,60,0.00,,CLR,0.00,777.00,VWS V14.01,2013-07-16 14:58:00,
2013-07-16 11:00:00,85.7,70.7,30.07,NW,313,4.0,5.0,61,0.00,,OVC012,0.00,777.00,VWS V14.01,2013-07-16 15:00:00,
2013-07-16 11:03:00,86.0,70.0,30.07,NNW,330,1.0,2.0,59,0.00,,CLR,0.00,786.00,VWS V14.01,2013-07-16 15:03:00,
2013-07-16 11:05:00,85.9,70.4,30.07,NNW,330,1.0,8.0,60,0.00,,OVC012,0.00,784.00,VWS V14.01,2013-07-16 15:05:00,
2013-07-16 11:08:00,86.1,69.6,30.08,NNW,327,1.0,2.0,58,0.00,,CLR,0.00,793.00,VWS V14.01,2013-07-16 15:08:00,
2013-07-16 11:10:00,86.1,69.6,30.07,NNW,327,2.0,7.0,58,0.00,,OVC012,0.00,786.00,VWS V14.01,2013-07-16 15:10:00,
2013-07-16 11:13:00,86.3,70.3,30.07,NNW,336,3.0,6.0,59,0.00,,CLR,0.00,789.00,VWS V14.01,2013-07-16 15:13:00,
2013-07-16 11:15:00,86.3,70.3,30.07,NW,325,3.0,5.0,59,0.00,,OVC012,0.00,793.00,VWS V14.01,2013-07-16 15:15:00,
2013-07-16 11:18:00,86.3,69.3,30.07,WNW,295,4.0,6.0,57,0.00,,CLR,0.00,807.00,VWS V14.01,2013-07-16 15:18:00,
2013-07-16 11:20:00,86.4,70.4,30.07,West,281,3.0,7.0,59,0.00,,OVC012,0.00,805.00,VWS V14.01,2013-07-16 15:20:00,
2013-07-16 11:23:00,86.3,69.3,30.07,NW,318,4.0,8.0,57,0.00,,CLR,0.00,803.00,VWS V14.01,2013-07-16 15:23:00,
2013-07-16 11:25:00,86.3,68.8,30.07,NW,315,4.0,8.0,56,0.00,,OVC012,0.00,809.00,VWS V14.01,2013-07-16 15:25:00,
2013-07-16 11:28:00,86.3,69.8,30.08,WNW,292,4.0,7.0,58,0.00,,CLR,0.00,807.00,VWS V14.01,2013-07-16 15:28:00,
2013-07-16 11:30:00,86.3,70.3,30.07,WNW,292,5.0,8.0,59,0.00,,OVC012,0.00,802.00,VWS V14.01,2013-07-16 15:30:00,
2013-07-16 11:33:00,86.3,69.8,30.07,NNW,331,2.0,5.0,58,0.00,,CLR,0.00,821.00,VWS V14.01,2013-07-16 15:33:00,
2013-07-16 11:35:00,86.3,69.3,30.07,NNW,331,5.0,7.0,57,0.00,,OVC012,0.00,823.00,VWS V14.01,2013-07-16 15:35:00,
2013-07-16 11:38:00,86.3,69.8,30.07,North,349,5.0,6.0,58,0.00,,CLR,0.00,817.00,VWS V14.01,2013-07-16 15:38:00,
2013-07-16 11:40:00,86.3,70.3,30.08,NNW,331,4.0,9.0,59,0.00,,OVC012,0.00,821.00,VWS V14.01,2013-07-16 15:40:00,
2013-07-16 11:43:00,86.3,69.8,30.07,NNE,17,4.0,6.0,58,0.00,,CLR,0.00,835.00,VWS V14.01,2013-07-16 15:43:00,
2013-07-16 11:45:00,86.3,70.8,30.08,NW,325,3.0,9.0,60,0.00,,OVC012,0.00,833.00,VWS V14.01,2013-07-16 15:45:00,
2013-07-16 11:49:00,86.4,69.9,30.07,NW,313,7.0,9.0,58,0.00,,CLR,0.00,830.00,VWS V14.01,2013-07-16 15:49:00,
2013-07-16 11:50:00,86.4,69.9,30.07,NNW,339,3.0,8.0,58,0.00,,OVC012,0.00,838.00,VWS V14.01,2013-07-16 15:50:00,
2013-07-16 11:54:00,86.7,69.7,30.07,NW,313,6.0,7.0,57,0.00,,CLR,0.00,838.00,VWS V14.01,2013-07-16 15:54:00,
2013-07-16 11:55:00,86.6,69.1,30.07,North,11,3.0,9.0,56,0.00,,OVC012,0.00,842.00,VWS V14.01,2013-07-16 15:55:00,
2013-07-16 11:59:00,86.9,70.9,30.07,NNW,329,5.0,7.0,59,0.00,,CLR,0.00,854.00,VWS V14.01,2013-07-16 15:59:00,
2013-07-16 12:00:00,86.9,70.4,30.07,NNE,18,4.0,8.0,58,0.00,,OVC012,0.00,853.00,VWS V14.01,2013-07-16 16:00:00,
2013-07-16 12:04:00,86.7,70.2,30.07,NNW,341,1.0,5.0,58,0.00,,CLR,0.00,846.00,VWS V14.01,2013-07-16 16:04:00,
2013-07-16 12:05:00,86.8,69.8,30.07,NW,306,4.0,10.0,57,0.00,,OVC012,0.00,851.00,VWS V14.01,2013-07-16 16:05:00,
2013-07-16 12:09:00,87.0,71.9,30.07,North,5,6.0,7.0,61,0.00,,CLR,0.00,840.00,VWS V14.01,2013-07-16 16:09:00,
2013-07-16 12:10:00,86.9,70.9,30.07,WNW,296,6.0,8.0,59,0.00,,OVC012,0.00,847.00,VWS V14.01,2013-07-16 16:10:00,
2013-07-16 12:14:00,87.0,69.9,30.07,NW,306,3.0,10.0,57,0.00,,CLR,0.00,846.00,VWS V14.01,2013-07-16 16:14:00,
2013-07-16 12:15:00,87.0,69.9,30.08,West,263,10.0,11.0,57,0.00,,OVC012,0.00,838.00,VWS V14.01,2013-07-16 16:15:00,
2013-07-16 12:19:00,87.5,70.4,30.08,NNE,19,4.0,7.0,57,0.00,,CLR,0.00,849.00,VWS V14.01,2013-07-16 16:19:00,
2013-07-16 12:20:00,87.3,70.7,30.08,North,355,2.0,10.0,58,0.00,,OVC012,0.00,846.00,VWS V14.01,2013-07-16 16:20:00,
2013-07-16 12:24:00,87.4,69.3,30.08,North,5,4.0,9.0,55,0.00,,CLR,0.00,888.00,VWS V14.01,2013-07-16 16:24:00,
2013-07-16 12:25:00,87.5,70.9,30.07,NNW,342,8.0,8.0,58,0.00,,OVC012,0.00,884.00,VWS V14.01,2013-07-16 16:25:00,
2013-07-16 12:29:00,87.6,69.4,30.07,NW,323,4.0,9.0,55,0.00,,CLR,0.00,884.00,VWS V14.01,2013-07-16 16:29:00,
2013-07-16 12:30:00,87.5,69.9,30.08,NNW,331,3.0,9.0,56,0.00,,OVC012,0.00,874.00,VWS V14.01,2013-07-16 16:30:00,
2013-07-16 12:34:00,87.6,68.9,30.07,NNE,20,10.0,11.0,54,0.00,,CLR,0.00,165.00,VWS V14.01,2013-07-16 16:34:00,
2013-07-16 12:35:00,87.6,68.9,30.07,NNW,348,3.0,9.0,54,0.00,,OVC012,0.00,898.00,VWS V14.01,2013-07-16 16:35:00,
2013-07-16 12:39:00,87.5,69.4,30.07,NNE,19,3.0,7.0,55,0.00,,CLR,0.00,914.00,VWS V14.01,2013-07-16 16:39:00,
2013-07-16 12:40:00,87.4,69.3,30.07,North,350,3.0,11.0,55,0.00,,OVC012,0.00,912.00,VWS V14.01,2013-07-16 16:40:00,
2013-07-16 12:44:00,88.0,69.8,30.07,NW,321,5.0,9.0,55,0.00,,CLR,0.00,942.00,VWS V14.01,2013-07-16 16:44:00,
2013-07-16 12:45:00,87.9,70.8,30.07,NNW,329,3.0,10.0,57,0.00,,OVC012,0.00,925.00,VWS V14.01,2013-07-16 16:45:00,
2013-07-16 12:49:00,87.9,69.7,30.07,NW,323,2.0,4.0,55,0.00,,CLR,0.00,963.00,VWS V14.01,2013-07-16 16:49:00,
2013-07-16 12:50:00,87.9,70.3,30.07,North,5,3.0,12.0,56,0.00,,OVC012,0.00,963.00,VWS V14.01,2013-07-16 16:50:00,
2013-07-16 12:54:00,87.6,68.9,30.07,NNW,329,5.0,11.0,54,0.00,,CLR,0.00,160.00,VWS V14.01,2013-07-16 16:54:00,
2013-07-16 12:55:00,87.8,70.2,30.07,NNW,333,6.0,9.0,56,0.00,,OVC012,0.00,165.00,VWS V14.01,2013-07-16 16:55:00,
2013-07-16 12:59:00,87.6,68.9,30.07,North,9,4.0,8.0,54,0.00,,CLR,0.00,907.00,VWS V14.01,2013-07-16 16:59:00,
2013-07-16 13:00:00,87.5,70.4,30.07,North,355,8.0,11.0,57,0.00,,OVC012,0.00,900.00,VWS V14.01,2013-07-16 17:00:00,
2013-07-16 13:04:00,87.9,68.7,30.07,NW,320,6.0,12.0,53,0.00,,CLR,0.00,874.00,VWS V14.01,2013-07-16 17:04:00,
2013-07-16 13:05:00,87.8,69.1,30.07,NW,319,6.0,8.0,54,0.00,,OVC012,0.00,881.00,VWS V14.01,2013-07-16 17:05:00,
2013-07-16 13:10:00,87.8,69.1,30.06,NW,309,0.0,3.0,54,0.00,,CLR,0.00,758.00,VWS V14.01,2013-07-16 17:10:00,
2013-07-16 13:15:00,88.4,68.6,30.06,NNE,12,3.0,6.0,52,0.00,,CLR,0.00,171.00,VWS V14.01,2013-07-16 17:15:00,
2013-07-16 13:20:00,88.7,68.8,30.06,NNW,330,4.0,6.0,52,0.00,,CLR,0.00,176.00,VWS V14.01,2013-07-16 17:20:00,
2013-07-16 13:25:00,88.8,68.9,30.06,NNW,338,6.0,10.0,52,0.00,,CLR,0.00,165.00,VWS V14.01,2013-07-16 17:25:00,
2013-07-16 13:30:00,88.5,68.6,30.06,North,355,2.0,5.0,52,0.00,,CLR,0.00,132.00,VWS V14.01,2013-07-16 17:30:00,
2013-07-16 13:35:00,88.9,69.0,30.06,NNE,17,4.0,9.0,52,0.00,,CLR,0.00,123.00,VWS V14.01,2013-07-16 17:35:00,
2013-07-16 13:40:00,88.8,68.4,30.06,NW,317,5.0,9.0,51,0.00,,CLR,0.00,123.00,VWS V14.01,2013-07-16 17:40:00,
2013-07-16 13:45:00,88.7,67.7,30.06,NNE,22,5.0,11.0,50,0.00,,CLR,0.00,81.00,VWS V14.01,2013-07-16 17:45:00,
2013-07-16 13:50:00,88.5,68.6,30.06,NNE,13,4.0,10.0,52,0.00,,CLR,0.00,116.00,VWS V14.01,2013-07-16 17:50:00,
2013-07-16 13:55:00,88.8,68.4,30.05,NNW,347,3.0,7.0,51,0.00,,CLR,0.00,111.00,VWS V14.01,2013-07-16 17:55:00,
2013-07-16 14:00:00,89.2,69.3,30.05,NNW,327,1.0,14.0,52,0.00,,CLR,0.00,174.00,VWS V14.01,2013-07-16 18:00:00,
2013-07-16 14:05:00,89.4,67.7,30.06,NNE,15,5.0,12.0,49,0.00,,CLR,0.00,547.00,VWS V14.01,2013-07-16 18:05:00,
2013-07-16 14:10:00,89.1,67.5,30.06,WNW,296,3.0,14.0,49,0.00,,CLR,0.00,793.00,VWS V14.01,2013-07-16 18:10:00,
2013-07-16 14:15:00,89.1,68.1,30.05,NW,323,6.0,14.0,50,0.00,,OVC012,0.00,805.00,VWS V14.01,2013-07-16 18:15:00,
2013-07-16 14:16:00,89.4,68.9,30.05,NNW,342,3.0,7.0,51,0.00,,CLR,0.00,812.00,VWS V14.01,2013-07-16 18:16:00,
2013-07-16 14:20:00,89.6,68.5,30.05,NNW,343,1.0,7.0,50,0.00,,OVC012,0.00,803.00,VWS V14.01,2013-07-16 18:20:00,
2013-07-16 14:21:00,90.3,68.6,30.05,NW,319,1.0,4.0,49,0.00,,CLR,0.00,814.00,VWS V14.01,2013-07-16 18:21:00,
2013-07-16 14:25:00,90.5,69.3,30.05,East,83,3.0,4.0,50,0.00,,OVC012,0.00,819.00,VWS V14.01,2013-07-16 18:25:00,
2013-07-16 14:26:00,90.5,68.2,30.05,NNE,27,3.0,8.0,48,0.00,,CLR,0.00,271.00,VWS V14.01,2013-07-16 18:26:00,
2013-07-16 14:30:00,90.3,68.0,30.05,North,5,4.0,8.0,48,0.00,,OVC012,0.00,127.00,VWS V14.01,2013-07-16 18:30:00,
2013-07-16 14:31:00,89.6,67.3,30.05,North,355,1.0,8.0,48,0.00,,CLR,0.00,130.00,VWS V14.01,2013-07-16 18:31:00,
2013-07-16 14:35:00,89.5,68.4,30.05,North,349,6.0,8.0,50,0.00,,OVC012,0.00,812.00,VWS V14.01,2013-07-16 18:35:00,
2013-07-16 14:36:00,89.5,68.4,30.05,NNW,327,7.0,8.0,50,0.00,,CLR,0.00,819.00,VWS V14.01,2013-07-16 18:36:00,
2013-07-16 14:40:00,89.6,68.5,30.05,NW,304,2.0,10.0,50,0.00,,OVC012,0.00,146.00,VWS V14.01,2013-07-16 18:40:00,
2013-07-16 14:41:00,89.3,68.2,30.05,NNE,22,4.0,7.0,50,0.00,,CLR,0.00,132.00,VWS V14.01,2013-07-16 18:41:00,
2013-07-16 14:45:00,89.2,68.7,30.05,NW,314,5.0,7.0,51,0.00,,OVC012,0.00,132.00,VWS V14.01,2013-07-16 18:45:00,
2013-07-16 14:46:00,89.2,68.7,30.05,NNW,336,6.0,8.0,51,0.00,,CLR,0.00,803.00,VWS V14.01,2013-07-16 18:46:00,
2013-07-16 14:50:00,89.2,68.2,30.05,WNW,294,7.0,8.0,50,0.00,,OVC012,0.00,802.00,VWS V14.01,2013-07-16 18:50:00,
2013-07-16 14:51:00,89.4,68.3,30.05,WNW,302,1.0,10.0,50,0.00,,CLR,0.00,149.00,VWS V14.01,2013-07-16 18:51:00,
2013-07-16 14:55:00,89.3,68.8,30.05,NW,305,3.0,10.0,51,0.00,,OVC012,0.00,151.00,VWS V14.01,2013-07-16 18:55:00,
2013-07-16 14:56:00,89.1,68.1,30.05,North,5,6.0,12.0,50,0.00,,CLR,0.00,223.00,VWS V14.01,2013-07-16 18:56:00,
2013-07-16 15:00:00,89.2,68.2,30.05,NNE,16,3.0,12.0,50,0.00,,OVC012,0.00,223.00,VWS V14.01,2013-07-16 19:00:00,
2013-07-16 15:01:00,89.0,68.0,30.05,NNE,31,5.0,11.0,50,0.00,,CLR,0.00,163.00,VWS V14.01,2013-07-16 19:01:00,
2013-07-16 15:05:00,89.0,68.5,30.05,WNW,300,6.0,11.0,51,0.00,,OVC012,0.00,135.00,VWS V14.01,2013-07-16 19:05:00,
2013-07-16 15:07:00,88.9,69.0,30.05,NW,312,3.0,11.0,52,0.00,,CLR,0.00,717.00,VWS V14.01,2013-07-16 19:07:00,
2013-07-16 15:10:00,88.9,69.0,30.05,NNW,330,6.0,11.0,52,0.00,,OVC012,0.00,717.00,VWS V14.01,2013-07-16 19:10:00,
2013-07-16 15:12:00,89.6,69.1,30.05,NNW,329,2.0,8.0,51,0.00,,CLR,0.00,717.00,VWS V14.01,2013-07-16 19:12:00,
2013-07-16 15:15:00,89.7,69.2,30.05,WNW,302,5.0,8.0,51,0.00,,OVC012,0.00,717.00,VWS V14.01,2013-07-16 19:15:00,
2013-07-16 15:17:00,90.2,68.5,30.05,NW,306,6.0,11.0,49,0.00,,CLR,0.00,700.00,VWS V14.01,2013-07-16 19:17:00,
2013-07-16 15:20:00,90.3,68.6,30.05,North,360,6.0,11.0,49,0.00,,OVC012,0.00,700.00,VWS V14.01,2013-07-16 19:20:00,
2013-07-16 15:22:00,90.2,68.5,30.05,NNW,343,6.0,11.0,49,0.00,,CLR,0.00,689.00,VWS V14.01,2013-07-16 19:22:00,
2013-07-16 15:25:00,90.2,68.5,30.05,North,360,7.0,11.0,49,0.00,,OVC012,0.00,689.00,VWS V14.01,2013-07-16 19:25:00,
2013-07-16 15:27:00,90.1,68.4,30.05,North,11,7.0,11.0,49,0.00,,CLR,0.00,684.00,VWS V14.01,2013-07-16 19:27:00,
2013-07-16 15:30:00,90.1,68.4,30.05,NNE,30,5.0,11.0,49,0.00,,OVC012,0.00,671.00,VWS V14.01,2013-07-16 19:30:00,
2013-07-16 15:32:00,90.3,69.2,30.04,West,273,6.0,8.0,50,0.00,,CLR,0.00,680.00,VWS V14.01,2013-07-16 19:32:00,
2013-07-16 15:35:00,90.3,69.2,30.04,West,273,5.0,8.0,50,0.00,,OVC012,0.00,680.00,VWS V14.01,2013-07-16 19:35:00,
2013-07-16 15:37:00,90.5,69.3,30.05,NNW,334,0.0,7.0,50,0.00,,CLR,0.00,666.00,VWS V14.01,2013-07-16 19:37:00,
2013-07-16 15:40:00,90.5,69.3,30.05,NNW,334,0.0,7.0,50,0.00,,OVC012,0.00,666.00,VWS V14.01,2013-07-16 19:40:00,
2013-07-16 15:42:00,90.7,69.5,30.04,NE,41,3.0,9.0,50,0.00,,CLR,0.00,675.00,VWS V14.01,2013-07-16 19:42:00,
2013-07-16 15:45:00,90.7,69.5,30.04,NE,41,3.0,9.0,50,0.00,,OVC012,0.00,675.00,VWS V14.01,2013-07-16 19:45:00,
2013-07-16 15:47:00,90.7,68.3,30.04,NNE,19,9.0,11.0,48,0.00,,CLR,0.00,647.00,VWS V14.01,2013-07-16 19:47:00,
2013-07-16 15:50:00,90.7,68.3,30.04,NNE,19,9.0,11.0,48,0.00,,OVC012,0.00,647.00,VWS V14.01,2013-07-16 19:50:00,
2013-07-16 15:52:00,90.6,67.6,30.04,NNE,26,7.0,8.0,47,0.00,,CLR,0.00,631.00,VWS V14.01,2013-07-16 19:52:00,
2013-07-16 15:55:00,90.6,67.6,30.05,NNW,333,7.0,9.0,47,0.00,,OVC012,0.00,631.00,VWS V14.01,2013-07-16 19:55:00,
2013-07-16 15:57:00,90.6,67.6,30.04,North,355,5.0,6.0,47,0.00,,CLR,0.00,613.00,VWS V14.01,2013-07-16 19:57:00,
2013-07-16 16:00:00,90.6,67.6,30.04,North,355,2.0,8.0,47,0.00,,OVC012,0.00,613.00,VWS V14.01,2013-07-16 20:00:00,
2013-07-16 16:02:00,90.6,67.0,30.04,NE,49,5.0,5.0,46,0.00,,CLR,0.00,599.00,VWS V14.01,2013-07-16 20:02:00,
2013-07-16 16:05:00,90.6,67.0,30.04,ENE,58,3.0,10.0,46,0.00,,OVC012,0.00,599.00,VWS V14.01,2013-07-16 20:05:00,
2013-07-16 16:07:00,90.5,66.3,30.04,ENE,70,4.0,4.0,45,0.00,,CLR,0.00,601.00,VWS V14.01,2013-07-16 20:07:00,
2013-07-16 16:10:00,90.5,66.3,30.04,NNW,339,1.0,10.0,45,0.00,,OVC012,0.00,594.00,VWS V14.01,2013-07-16 20:10:00,
2013-07-16 16:12:00,90.5,66.9,30.04,NNE,13,8.0,9.0,46,0.00,,CLR,0.00,584.00,VWS V14.01,2013-07-16 20:12:00,
2013-07-16 16:15:00,90.5,66.9,30.04,North,360,8.0,10.0,46,0.00,,OVC012,0.00,589.00,VWS V14.01,2013-07-16 20:15:00,
2013-07-16 16:18:00,90.5,66.3,30.04,NNE,13,2.0,5.0,45,0.00,,CLR,0.00,563.00,VWS V14.01,2013-07-16 20:18:00,
2013-07-16 16:20:00,90.5,66.3,30.04,North,360,5.0,11.0,45,0.00,,OVC012,0.00,573.00,VWS V14.01,2013-07-16 20:20:00,
2013-07-16 16:23:00,90.4,65.5,30.04,NE,35,4.0,5.0,44,0.00,,CLR,0.00,571.00,VWS V14.01,2013-07-16 20:23:00,
2013-07-16 16:25:00,90.3,66.1,30.04,NNE,17,4.0,11.0,45,0.00,,OVC012,0.00,575.00,VWS V14.01,2013-07-16 20:25:00,
2013-07-16 16:28:00,90.8,66.6,30.04,NW,306,4.0,5.0,45,0.00,,CLR,0.00,529.00,VWS V14.01,2013-07-16 20:28:00,
2013-07-16 16:30:00,90.7,67.7,30.04,North,5,5.0,7.0,47,0.00,,OVC012,0.00,548.00,VWS V14.01,2013-07-16 20:30:00,
2013-07-16 16:33:00,90.9,66.6,30.04,North,10,5.0,8.0,45,0.00,,CLR,0.00,538.00,VWS V14.01,2013-07-16 20:33:00,
2013-07-16 16:35:00,90.9,67.3,30.04,NNW,335,2.0,6.0,46,0.00,,OVC012,0.00,533.00,VWS V14.01,2013-07-16 20:35:00,
2013-07-16 16:38:00,90.9,66.6,30.04,NNE,32,7.0,9.0,45,0.00,,CLR,0.00,513.00,VWS V14.01,2013-07-16 20:38:00,
2013-07-16 16:40:00,90.9,66.6,30.04,NNW,333,2.0,8.0,45,0.00,,OVC012,0.00,513.00,VWS V14.01,2013-07-16 20:40:00,
2013-07-16 16:43:00,90.8,66.6,30.04,North,5,5.0,5.0,45,0.00,,CLR,0.00,504.00,VWS V14.01,2013-07-16 20:43:00,
2013-07-16 16:45:00,90.8,66.6,30.04,NNE,24,2.0,9.0,45,0.00,,OVC012,0.00,506.00,VWS V14.01,2013-07-16 20:45:00,
2013-07-16 16:48:00,90.5,66.3,30.04,NNE,13,3.0,10.0,45,0.00,,CLR,0.00,485.00,VWS V14.01,2013-07-16 20:48:00,
2013-07-16 16:50:00,90.6,66.4,30.04,NNE,31,10.0,10.0,45,0.00,,OVC012,0.00,490.00,VWS V14.01,2013-07-16 20:50:00,
2013-07-16 16:53:00,90.6,67.0,30.04,NNE,15,3.0,6.0,46,0.00,,CLR,0.00,427.00,VWS V14.01,2013-07-16 20:53:00,
2013-07-16 16:55:00,90.6,67.0,30.04,North,355,2.0,10.0,46,0.00,,OVC012,0.00,471.00,VWS V14.01,2013-07-16 20:55:00,
2013-07-16 16:58:00,90.8,67.2,30.04,North,9,5.0,9.0,46,0.00,,CLR,0.00,466.00,VWS V14.01,2013-07-16 20:58:00,
2013-07-16 17:00:00,90.8,67.2,30.05,North,360,7.0,9.0,46,0.00,,OVC012,0.00,466.00,VWS V14.01,2013-07-16 21:00:00,
2013-07-16 17:03:00,90.5,66.9,30.04,North,355,6.0,8.0,46,0.00,,CLR,0.00,459.00,VWS V14.01,2013-07-16 21:03:00,
2013-07-16 17:05:00,90.6,67.0,30.04,North,5,3.0,9.0,46,0.00,,OVC012,0.00,459.00,VWS V14.01,2013-07-16 21:05:00,
2013-07-16 17:08:00,90.5,66.3,30.04,NNE,13,6.0,7.0,45,0.00,,CLR,0.00,438.00,VWS V14.01,2013-07-16 21:08:00,
2013-07-16 17:10:00,90.5,66.3,30.04,NNW,335,6.0,8.0,45,0.00,,OVC012,0.00,438.00,VWS V14.01,2013-07-16 21:10:00,
2013-07-16 17:13:00,90.6,66.4,30.04,East,96,5.0,6.0,45,0.00,,CLR,0.00,417.00,VWS V14.01,2013-07-16 21:13:00,
2013-07-16 17:15:00,90.5,66.9,30.04,ENE,58,3.0,7.0,46,0.00,,OVC012,0.00,424.00,VWS V14.01,2013-07-16 21:15:00,
2013-07-16 17:18:00,90.6,66.4,30.04,North,5,6.0,7.0,45,0.00,,CLR,0.00,399.00,VWS V14.01,2013-07-16 21:18:00,
2013-07-16 17:20:00,90.6,66.4,30.04,NE,42,0.0,9.0,45,0.00,,OVC012,0.00,404.00,VWS V14.01,2013-07-16 21:20:00,
2013-07-16 17:24:00,90.5,66.3,30.04,NE,44,3.0,6.0,45,0.00,,CLR,0.00,374.00,VWS V14.01,2013-07-16 21:24:00,
2013-07-16 17:25:00,90.5,66.3,30.04,NNE,28,3.0,8.0,45,0.00,,OVC012,0.00,387.00,VWS V14.01,2013-07-16 21:25:00,
2013-07-16 17:29:00,90.6,65.7,30.04,NE,44,3.0,5.0,44,0.00,,CLR,0.00,371.00,VWS V14.01,2013-07-16 21:29:00,
2013-07-16 17:30:00,90.5,66.3,30.04,NNW,333,4.0,6.0,45,0.00,,OVC012,0.00,374.00,VWS V14.01,2013-07-16 21:30:00,
2013-07-16 17:34:00,90.7,65.8,30.04,SE,136,9.0,10.0,44,0.00,,CLR,0.00,207.00,VWS V14.01,2013-07-16 21:34:00,
2013-07-16 17:35:00,90.7,66.5,30.04,SE,131,7.0,7.0,45,0.00,,OVC012,0.00,294.00,VWS V14.01,2013-07-16 21:35:00,
2013-07-16 17:39:00,87.9,69.7,30.05,SE,127,6.0,13.0,55,0.00,,CLR,0.00,216.00,VWS V14.01,2013-07-16 21:39:00,
2013-07-16 17:40:00,88.9,69.6,30.05,ESE,117,12.0,15.0,53,0.00,,OVC012,0.00,204.00,VWS V14.01,2013-07-16 21:40:00,
2013-07-16 17:44:00,86.5,69.5,30.05,SE,134,8.0,10.0,57,0.00,,CLR,0.00,246.00,VWS V14.01,2013-07-16 21:44:00,
2013-07-16 17:45:00,86.9,69.8,30.04,SE,132,9.0,13.0,57,0.00,,OVC012,0.00,137.00,VWS V14.01,2013-07-16 21:45:00,
2013-07-16 17:49:00,85.7,69.2,30.05,SE,134,9.0,12.0,58,0.00,,CLR,0.00,304.00,VWS V14.01,2013-07-16 21:49:00,
2013-07-16 17:50:00,86.0,69.5,30.05,SE,124,6.0,11.0,58,0.00,,OVC012,0.00,308.00,VWS V14.01,2013-07-16 21:50:00,
2013-07-16 17:54:00,85.0,69.6,30.05,SE,129,8.0,9.0,60,0.00,,CLR,0.00,77.00,VWS V14.01,2013-07-16 21:54:00,
2013-07-16 17:55:00,85.2,69.3,30.05,SE,138,8.0,12.0,59,0.00,,OVC012,0.00,79.00,VWS V14.01,2013-07-16 21:55:00,
2013-07-16 17:59:00,84.4,69.5,30.05,ESE,112,9.0,11.0,61,0.00,,CLR,0.00,276.00,VWS V14.01,2013-07-16 21:59:00,
2013-07-16 18:00:00,84.6,69.2,30.05,SE,127,9.0,13.0,60,0.00,,OVC012,0.00,290.00,VWS V14.01,2013-07-16 22:00:00,
2013-07-16 18:04:00,83.8,68.9,30.05,ESE,106,8.0,11.0,61,0.00,,CLR,0.00,46.00,VWS V14.01,2013-07-16 22:04:00,
2013-07-16 18:05:00,84.1,68.7,30.05,ESE,115,6.0,12.0,60,0.00,,OVC012,0.00,51.00,VWS V14.01,2013-07-16 22:05:00,
2013-07-16 18:09:00,83.3,68.5,30.05,ESE,102,8.0,11.0,61,0.00,,CLR,0.00,40.00,VWS V14.01,2013-07-16 22:09:00,
2013-07-16 18:10:00,83.5,69.1,30.05,ESE,119,6.0,11.0,62,0.00,,OVC012,0.00,42.00,VWS V14.01,2013-07-16 22:10:00,
2013-07-16 18:14:00,82.8,68.5,30.05,ESE,114,7.0,9.0,62,0.00,,CLR,0.00,42.00,VWS V14.01,2013-07-16 22:14:00,
2013-07-16 18:15:00,82.9,68.1,30.05,ESE,107,8.0,13.0,61,0.00,,OVC012,0.00,42.00,VWS V14.01,2013-07-16 22:15:00,
2013-07-16 18:19:00,82.7,68.8,30.05,SE,134,6.0,9.0,63,0.00,,CLR,0.00,211.00,VWS V14.01,2013-07-16 22:19:00,
2013-07-16 18:20:00,82.7,68.4,30.05,SSE,152,7.0,12.0,62,0.00,,OVC012,0.00,49.00,VWS V14.01,2013-07-16 22:20:00,
2013-07-16 18:24:00,82.7,68.8,30.06,SE,128,7.0,8.0,63,0.00,,CLR,0.00,200.00,VWS V14.01,2013-07-16 22:24:00,
2013-07-16 18:25:00,82.7,68.4,30.05,SE,124,7.0,11.0,62,0.00,,OVC012,0.00,176.00,VWS V14.01,2013-07-16 22:25:00,
2013-07-16 18:30:00,82.4,68.6,30.06,SE,126,8.0,11.0,63,0.00,,CLR,0.00,105.00,VWS V14.01,2013-07-16 22:30:00,
2013-07-16 18:35:00,82.3,68.5,30.06,SSE,167,6.0,9.0,63,0.00,,CLR,0.00,204.00,VWS V14.01,2013-07-16 22:35:00,
2013-07-16 18:40:00,82.2,68.4,30.06,SE,141,8.0,8.0,63,0.00,,CLR,0.00,81.00,VWS V14.01,2013-07-16 22:40:00,
2013-07-16 18:45:00,82.0,68.6,30.06,SSE,167,4.0,8.0,64,0.00,,CLR,0.00,185.00,VWS V14.01,2013-07-16 22:45:00,
2013-07-16 18:50:00,81.9,68.5,30.06,SSE,160,6.0,7.0,64,0.00,,CLR,0.00,100.00,VWS V14.01,2013-07-16 22:50:00,
2013-07-16 18:55:00,81.7,67.9,30.06,SSE,154,5.0,7.0,63,0.00,,CLR,0.00,90.00,VWS V14.01,2013-07-16 22:55:00,
2013-07-16 19:00:00,81.6,67.3,30.07,SSE,151,5.0,7.0,62,0.00,,CLR,0.00,76.00,VWS V14.01,2013-07-16 23:00:00,
2013-07-16 19:05:00,81.6,67.8,30.07,SSE,150,4.0,6.0,63,0.00,,CLR,0.00,76.00,VWS V14.01,2013-07-16 23:05:00,
2013-07-16 19:10:00,81.5,67.7,30.06,SE,139,2.0,5.0,63,0.00,,CLR,0.00,111.00,VWS V14.01,2013-07-16 23:10:00,
2013-07-16 19:15:00,81.6,67.3,30.07,SE,139,2.0,6.0,62,0.00,,CLR,0.00,81.00,VWS V14.01,2013-07-16 23:15:00,
2013-07-16 19:20:00,81.6,67.8,30.07,SE,138,4.0,5.0,63,0.00,,CLR,0.00,65.00,VWS V14.01,2013-07-16 23:20:00,
2013-07-16 19:25:00,81.5,67.7,30.07,SE,138,4.0,5.0,63,0.00,,CLR,0.00,62.00,VWS V14.01,2013-07-16 23:25:00,
2013-07-16 19:30:00,81.4,68.1,30.07,East,94,2.0,6.0,64,0.00,,CLR,0.00,60.00,VWS V14.01,2013-07-16 23:30:00,
2013-07-16 19:35:00,81.1,67.8,30.07,ESE,107,6.0,6.0,64,0.00,,CLR,0.00,54.00,VWS V14.01,2013-07-16 23:35:00,
2013-07-16 19:40:00,81.0,67.7,30.07,East,97,5.0,6.0,64,0.00,,OVC012,0.00,54.00,VWS V14.01,2013-07-16 23:40:00,
2013-07-16 19:41:00,80.8,67.9,30.07,East,92,2.0,6.0,65,0.00,,CLR,0.00,54.00,VWS V14.01,2013-07-16 23:41:00,
2013-07-16 19:45:00,80.8,67.9,30.07,East,92,4.0,6.0,65,0.00,,OVC012,0.00,56.00,VWS V14.01,2013-07-16 23:45:00,
2013-07-16 19:46:00,80.6,67.8,30.07,East,89,4.0,6.0,65,0.00,,CLR,0.00,56.00,VWS V14.01,2013-07-16 23:46:00,
2013-07-16 19:50:00,80.6,67.8,30.08,ESE,102,6.0,8.0,65,0.00,,OVC012,0.00,54.00,VWS V14.01,2013-07-16 23:50:00,
2013-07-16 19:51:00,80.5,66.8,30.08,East,94,5.0,8.0,63,0.00,,CLR,0.00,47.00,VWS V14.01,2013-07-16 23:51:00,
2013-07-16 19:55:00,80.4,66.7,30.08,ESE,107,6.0,8.0,63,0.00,,OVC012,0.00,44.00,VWS V14.01,2013-07-16 23:55:00,
2013-07-16 19:56:00,80.4,66.2,30.08,SE,124,6.0,7.0,62,0.00,,CLR,0.00,32.00,VWS V14.01,2013-07-16 23:56:00,
2013-07-16 20:00:00,80.4,66.7,30.08,SE,140,6.0,8.0,63,0.00,,OVC012,0.00,26.00,VWS V14.01,2013-07-17 00:00:00,
2013-07-16 20:01:00,80.5,66.3,30.07,SSE,151,5.0,11.0,62,0.00,,CLR,0.00,21.00,VWS V14.01,2013-07-17 00:01:00,
2013-07-16 20:05:00,80.5,66.3,30.08,SSE,151,1.0,11.0,62,0.00,,OVC012,0.00,21.00,VWS V14.01,2013-07-17 00:05:00,
2013-07-16 20:06:00,80.4,66.7,30.08,SE,139,7.0,7.0,63,0.00,,CLR,0.00,16.00,VWS V14.01,2013-07-17 00:06:00,
2013-07-16 20:10:00,80.4,66.7,30.08,SE,140,4.0,7.0,63,0.00,,OVC012,0.00,16.00,VWS V14.01,2013-07-17 00:10:00,
2013-07-16 20:11:00,80.2,66.0,30.08,SE,142,4.0,7.0,62,0.00,,CLR,0.00,12.00,VWS V14.01,2013-07-17 00:11:00,
2013-07-16 20:15:00,80.2,66.0,30.08,SE,138,5.0,7.0,62,0.00,,OVC012,0.00,12.00,VWS V14.01,2013-07-17 00:15:00,
2013-07-16 20:16:00,80.0,65.8,30.08,SE,135,5.0,8.0,62,0.00,,CLR,0.00,9.00,VWS V14.01,2013-07-17 00:16:00,
2013-07-16 20:20:00,80.0,65.8,30.08,SE,130,6.0,8.0,62,0.00,,OVC012,0.00,9.00,VWS V14.01,2013-07-17 00:20:00,
2013-07-16 20:21:00,79.9,65.7,30.08,SE,130,6.0,7.0,62,0.00,,CLR,0.00,0.00,VWS V14.01,2013-07-17 00:21:00,
2013-07-16 20:25:00,79.9,65.7,30.08,ESE,123,5.0,7.0,62,0.00,,OVC012,0.00,0.00,VWS V14.01,2013-07-17 00:25:00,
2013-07-16 20:27:00,79.8,65.6,30.08,ESE,123,4.0,6.0,62,0.00,,CLR,0.00,0.00,VWS V14.01,2013-07-17 00:27:00,
2013-07-16 20:30:00,79.8,65.6,30.08,ESE,123,2.0,6.0,62,0.00,,OVC012,0.00,0.00,VWS V14.01,2013-07-17 00:30:00,
2013-07-16 20:32:00,79.6,65.9,30.08,ESE,122,4.0,5.0,63,0.00,,CLR,0.00,0.00,VWS V14.01,2013-07-17 00:32:00,
2013-07-16 20:35:00,79.6,65.9,30.08,ESE,122,2.0,5.0,63,0.00,,OVC012,0.00,0.00,VWS V14.01,2013-07-17 00:35:00,
2013-07-16 20:37:00,79.3,65.6,30.08,ESE,123,2.0,5.0,63,0.00,,CLR,0.00,0.00,VWS V14.01,2013-07-17 00:37:00,
2013-07-16 20:40:00,79.3,65.6,30.08,ESE,123,2.0,5.0,63,0.00,,OVC012,0.00,0.00,VWS V14.01,2013-07-17 00:40:00,
2013-07-16 20:42:00,78.9,65.7,30.08,ESE,117,4.0,5.0,64,0.00,,CLR,0.00,0.00,VWS V14.01,2013-07-17 00:42:00,
2013-07-16 20:45:00,78.9,65.7,30.08,ESE,117,4.0,5.0,64,0.00,,OVC012,0.00,0.00,VWS V14.01,2013-07-17 00:45:00,
2013-07-16 20:47:00,78.8,66.1,30.09,ESE,117,1.0,4.0,65,0.00,,CLR,0.00,0.00,VWS V14.01,2013-07-17 00:47:00,
2013-07-16 20:50:00,78.8,66.1,30.09,ESE,117,1.0,4.0,65,0.00,,OVC012,0.00,0.00,VWS V14.01,2013-07-17 00:50:00,
2013-07-16 20:52:00,78.6,65.9,30.09,ESE,117,2.0,5.0,65,0.00,,CLR,0.00,0.00,VWS V14.01,2013-07-17 00:52:00,
2013-07-16 20:55:00,78.6,65.9,30.09,ESE,117,2.0,5.0,65,0.00,,OVC012,0.00,0.00,VWS V14.01,2013-07-17 00:55:00,
2013-07-16 20:57:00,78.6,65.9,30.09,ESE,117,4.0,5.0,65,0.00,,CLR,0.00,0.00,VWS V14.01,2013-07-17 00:57:00,
2013-07-16 21:00:00,78.6,65.9,30.09,ESE,117,4.0,5.0,65,0.00,,OVC012,0.00,0.00,VWS V14.01,2013-07-17 01:00:00,
2013-07-16 21:02:00,78.6,66.3,30.09,ESE,117,0.0,4.0,66,0.00,,CLR,0.00,0.00,VWS V14.01,2013-07-17 01:02:00,
2013-07-16 21:05:00,78.6,66.3,30.09,ESE,117,0.0,4.0,66,0.00,,OVC012,0.00,0.00,VWS V14.01,2013-07-17 01:05:00,
2013-07-16 21:07:00,78.2,65.9,30.09,ESE,117,4.0,4.0,66,0.00,,CLR,0.00,0.00,VWS V14.01,2013-07-17 01:07:00,
2013-07-16 21:10:00,78.2,65.9,30.09,ESE,117,4.0,4.0,66,0.00,,OVC012,0.00,0.00,VWS V14.01,2013-07-17 01:10:00,
2013-07-16 21:12:00,77.9,66.1,30.09,ESE,117,2.0,4.0,67,0.00,,CLR,0.00,0.00,VWS V14.01,2013-07-17 01:12:00,
2013-07-16 21:15:00,77.9,66.1,30.09,ESE,117,2.0,4.0,67,0.00,,OVC012,0.00,0.00,VWS V14.01,2013-07-17 01:15:00,
2013-07-16 21:17:00,77.8,66.0,30.09,ESE,117,0.0,2.0,67,0.00,,CLR,0.00,0.00,VWS V14.01,2013-07-17 01:17:00,
2013-07-16 21:20:00,77.8,66.0,30.09,ESE,117,0.0,2.0,67,0.00,,OVC012,0.00,0.00,VWS V14.01,2013-07-17 01:20:00,
2013-07-16 21:22:00,77.7,65.9,30.09,ESE,117,1.0,1.0,67,0.00,,CLR,0.00,0.00,VWS V14.01,2013-07-17 01:22:00,
2013-07-16 21:25:00,77.7,65.9,30.09,ESE,117,1.0,1.0,67,0.00,,OVC012,0.00,0.00,VWS V14.01,2013-07-17 01:25:00,
2013-07-16 21:27:00,77.5,66.1,30.09,ESE,117,1.0,2.0,68,0.00,,CLR,0.00,0.00,VWS V14.01,2013-07-17 01:27:00,
2013-07-16 21:30:00,77.5,66.1,30.09,ESE,117,1.0,2.0,68,0.00,,OVC012,0.00,0.00,VWS V14.01,2013-07-17 01:30:00,
2013-07-16 21:32:00,77.3,65.9,30.09,ESE,117,0.0,0.0,68,0.00,,CLR,0.00,0.00,VWS V14.01,2013-07-17 01:32:00,
2013-07-16 21:35:00,77.3,65.9,30.09,ESE,117,0.0,2.0,68,0.00,,OVC012,0.00,0.00,VWS V14.01,2013-07-17 01:35:00,
2013-07-16 21:38:00,77.1,66.2,30.09,ESE,117,0.0,0.0,69,0.00,,CLR,0.00,0.00,VWS V14.01,2013-07-17 01:38:00,
2013-07-16 21:40:00,77.1,66.2,30.09,ESE,117,0.0,1.0,69,0.00,,OVC012,0.00,0.00,VWS V14.01,2013-07-17 01:40:00,
2013-07-16 21:43:00,77.0,66.1,30.09,ESE,117,0.0,0.0,69,0.00,,CLR,0.00,0.00,VWS V14.01,2013-07-17 01:43:00,
2013-07-16 21:45:00,76.9,66.0,30.09,ESE,117,0.0,0.0,69,0.00,,OVC012,0.00,0.00,VWS V14.01,2013-07-17 01:45:00,
2013-07-16 21:48:00,76.9,66.0,30.10,ESE,117,1.0,1.0,69,0.00,,CLR,0.00,0.00,VWS V14.01,2013-07-17 01:48:00,
2013-07-16 21:50:00,76.9,66.0,30.09,ESE,117,0.0,2.0,69,0.00,,OVC012,0.00,0.00,VWS V14.01,2013-07-17 01:50:00,
2013-07-16 21:53:00,76.7,66.2,30.10,ESE,117,2.0,2.0,70,0.00,,CLR,0.00,0.00,VWS V14.01,2013-07-17 01:53:00,
2013-07-16 21:55:00,76.8,65.9,30.10,ESE,117,1.0,2.0,69,0.00,,OVC012,0.00,0.00,VWS V14.01,2013-07-17 01:55:00,
2013-07-16 21:58:00,76.6,66.1,30.10,ESE,117,0.0,1.0,70,0.00,,CLR,0.00,0.00,VWS V14.01,2013-07-17 01:58:00,
2013-07-16 22:00:00,76.6,66.1,30.10,ESE,117,0.0,2.0,70,0.00,,OVC012,0.00,0.00,VWS V14.01,2013-07-17 02:00:00,
2013-07-16 22:03:00,76.5,66.0,30.10,ESE,117,1.0,2.0,70,0.00,,CLR,0.00,0.00,VWS V14.01,2013-07-17 02:03:00,
2013-07-16 22:05:00,76.6,66.1,30.10,ESE,117,2.0,2.0,70,0.00,,OVC012,0.00,0.00,VWS V14.01,2013-07-17 02:05:00,
2013-07-16 22:08:00,76.5,66.4,30.10,ESE,117,1.0,2.0,71,0.00,,CLR,0.00,0.00,VWS V14.01,2013-07-17 02:08:00,
2013-07-16 22:10:00,76.5,66.0,30.10,ESE,117,0.0,2.0,70,0.00,,OVC012,0.00,0.00,VWS V14.01,2013-07-17 02:10:00,
2013-07-16 22:13:00,76.5,66.4,30.10,ESE,117,0.0,0.0,71,0.00,,CLR,0.00,0.00,VWS V14.01,2013-07-17 02:13:00,
2013-07-16 22:15:00,76.5,66.4,30.10,ESE,117,0.0,2.0,71,0.00,,OVC012,0.00,0.00,VWS V14.01,2013-07-17 02:15:00,
2013-07-16 22:19:00,76.4,66.3,30.10,ESE,117,0.0,0.0,71,0.00,,CLR,0.00,0.00,VWS V14.01,2013-07-17 02:19:00,
2013-07-16 22:20:00,76.5,66.4,30.10,ESE,117,0.0,2.0,71,0.00,,OVC012,0.00,0.00,VWS V14.01,2013-07-17 02:20:00,
2013-07-16 22:24:00,76.3,66.2,30.09,ESE,117,0.0,1.0,71,0.00,,CLR,0.00,0.00,VWS V14.01,2013-07-17 02:24:00,
2013-07-16 22:25:00,76.4,66.3,30.09,ESE,117,0.0,1.0,71,0.00,,OVC012,0.00,0.00,VWS V14.01,2013-07-17 02:25:00,
2013-07-16 22:29:00,76.3,66.6,30.09,ESE,117,0.0,0.0,72,0.00,,CLR,0.00,0.00,VWS V14.01,2013-07-17 02:29:00,
2013-07-16 22:30:00,76.3,66.2,30.09,ESE,117,0.0,1.0,71,0.00,,OVC012,0.00,0.00,VWS V14.01,2013-07-17 02:30:00,
2013-07-16 22:34:00,76.2,66.5,30.10,ESE,117,0.0,0.0,72,0.00,,CLR,0.00,0.00,VWS V14.01,2013-07-17 02:34:00,
2013-07-16 22:35:00,76.2,66.5,30.10,ESE,117,0.0,1.0,72,0.00,,OVC012,0.00,0.00,VWS V14.01,2013-07-17 02:35:00,
2013-07-16 22:39:00,76.0,66.3,30.10,ESE,117,0.0,0.0,72,0.00,,CLR,0.00,0.00,VWS V14.01,2013-07-17 02:39:00,
2013-07-16 22:40:00,76.1,66.4,30.10,ESE,117,0.0,1.0,72,0.00,,OVC012,0.00,0.00,VWS V14.01,2013-07-17 02:40:00,
2013-07-16 22:44:00,75.9,66.6,30.10,ESE,117,0.0,0.0,73,0.00,,CLR,0.00,0.00,VWS V14.01,2013-07-17 02:44:00,
2013-07-16 22:45:00,75.9,66.6,30.10,ESE,117,0.0,1.0,73,0.00,,OVC012,0.00,0.00,VWS V14.01,2013-07-17 02:45:00,
2013-07-16 22:50:00,75.8,66.5,30.10,ESE,117,0.0,0.0,73,0.00,,CLR,0.00,0.00,VWS V14.01,2013-07-17 02:50:00,
2013-07-16 22:55:00,75.6,66.7,30.10,ESE,117,0.0,0.0,74,0.00,,CLR,0.00,0.00,VWS V14.01,2013-07-17 02:55:00,
2013-07-16 23:00:00,75.5,66.6,30.10,ESE,117,0.0,0.0,74,0.00,,CLR,0.00,0.00,VWS V14.01,2013-07-17 03:00:00,
2013-07-16 23:05:00,75.3,66.8,30.10,ESE,117,0.0,1.0,75,0.00,,CLR,0.00,0.00,VWS V14.01,2013-07-17 03:05:00,
2013-07-16 23:10:00,75.2,67.1,30.10,ESE,117,0.0,0.0,76,0.00,,CLR,0.00,0.00,VWS V14.01,2013-07-17 03:10:00,
2013-07-16 23:15:00,75.0,66.9,30.10,ESE,117,0.0,0.0,76,0.00,,CLR,0.00,0.00,VWS V14.01,2013-07-17 03:15:00,
2013-07-16 23:20:00,75.0,66.9,30.10,ESE,117,0.0,0.0,76,0.00,,OVC012,0.00,0.00,VWS V14.01,2013-07-17 03:20:00,
2013-07-16 23:21:00,74.8,67.1,30.10,ESE,117,0.0,0.0,77,0.00,,CLR,0.00,0.00,VWS V14.01,2013-07-17 03:21:00,
2013-07-16 23:25:00,74.8,67.1,30.10,ESE,117,0.0,0.0,77,0.00,,OVC012,0.00,0.00,VWS V14.01,2013-07-17 03:25:00,
2013-07-16 23:26:00,74.6,66.9,30.10,ESE,117,0.0,0.0,77,0.00,,CLR,0.00,0.00,VWS V14.01,2013-07-17 03:26:00,
2013-07-16 23:30:00,74.5,66.8,30.10,ESE,117,0.0,0.0,77,0.00,,OVC012,0.00,0.00,VWS V14.01,2013-07-17 03:30:00,
2013-07-16 23:31:00,74.3,67.0,30.10,ESE,117,0.0,1.0,78,0.00,,CLR,0.00,0.00,VWS V14.01,2013-07-17 03:31:00,
2013-07-16 23:35:00,74.2,66.9,30.10,ESE,117,0.0,1.0,78,0.00,,OVC012,0.00,0.00,VWS V14.01,2013-07-17 03:35:00,
2013-07-16 23:36:00,74.1,66.8,30.10,ESE,117,0.0,0.0,78,0.00,,CLR,0.00,0.00,VWS V14.01,2013-07-17 03:36:00,
2013-07-16 23:40:00,74.1,66.8,30.10,ESE,117,0.0,0.0,78,0.00,,OVC012,0.00,0.00,VWS V14.01,2013-07-17 03:40:00,
2013-07-16 23:41:00,74.0,66.7,30.10,ESE,117,0.0,0.0,78,0.00,,CLR,0.00,0.00,VWS V14.01,2013-07-17 03:41:00,
2013-07-16 23:45:00,74.0,66.7,30.10,ESE,117,0.0,0.0,78,0.00,,OVC012,0.00,0.00,VWS V14.01,2013-07-17 03:45:00,
2013-07-16 23:46:00,73.8,66.9,30.10,ESE,117,0.0,0.0,79,0.00,,CLR,0.00,0.00,VWS V14.01,2013-07-17 03:46:00,
2013-07-16 23:50:00,73.8,66.9,30.10,ESE,117,0.0,0.0,79,0.00,,OVC012,0.00,0.00,VWS V14.01,2013-07-17 03:50:00,
2013-07-16 23:51:00,73.6,66.7,30.10,ESE,117,0.0,0.0,79,0.00,,CLR,0.00,0.00,VWS V14.01,2013-07-17 03:51:00,
2013-07-16 23:55:00,73.6,66.7,30.10,ESE,117,0.0,0.0,79,0.00,,OVC012,0.00,0.00,VWS V14.01,2013-07-17 03:55:00,
2013-07-16 23:57:00,73.5,67.0,30.10,ESE,117,0.0,0.0,80,0.00,,CLR,0.00,0.00,VWS V14.01,2013-07-17 03:57:00,